sat.trackr.live / text

‹ back to catalog

FLOCK 4H-2

NORAD 66705 · 2025-276AR

PAYLOAD ACTIVE UNKNOWN

§ Identity

Operator
Country
US
Launch date
2025-11-28
Launch site
AFWTR
Launch vehicle
Mass (kg)
RCS (m²)

Purposes: earth_obs

External: N2YO · Heavens-Above · Gunter

§ Orbital elements

Epoch: 2026-09-19T22:31:38.663616Z

Period
94.62 min
Inclination
97.4095°
Eccentricity
0.0001842
Mean motion
15.21874539 rev/d
Perigee alt
498.9 km
Apogee alt
501.5 km
Semi-major
6,878.3 km
B*
2.1378e-4
RAAN
335.2242°
Arg perigee
54.8375°
Mean anomaly
305.3033°
Rev number
4,484

§ Raw data

FLOCK 4H-21 66705U 25276AR  26262.93864194  .00004794  00000+0  21378-3 0  99952 66705  97.4095 335.2242 0001842  54.8375 305.3033 15.21874539 44840

JSON: /api/v1/satellites/66705 · /tle

For live sub-satellite position, see the globe view (requires WebGL).

§ Visibility from observer

Set your observer location to see the next 7 days of passes ≥ 10°. The values pass through the URL so the page stays shareable.

No JS? Fill the form by hand. The geolocation button needs JavaScript.